This demonstration page uses our WeatherBlox Daily Observations layout. Learn more.

Left ArrowRight Arrow

36.19886, -115.1175

Hourly Observations for August 20, 2015

Temp ( °F °C ) Dew Point ( °F °C ) Humidity (%) Winds ( mph kmh ) Pressure ( in mb ) Visibility ( mi km ) Precip ( " mm )
12:53 am 00:53 Clear 91 32.8 37 2.8 15 15 VRB 3 6 29.67 1005 10 16 0.00 0.00
1:53 am 01:53 Clear 85 29.4 41 5 21 21 NW 5 7 29.68 1005 10 16 0.00 0.00
2:53 am 02:53 Clear 84 28.9 39 3.9 20 20 NW 3 6 29.69 1005 10 16 0.00 0.00
3:53 am 03:53 Clear 83 28.3 40 4.4 22 22 Calm 29.70 1006 10 16 0.00 0.00
4:53 am 04:53 Clear 81 27.2 43 6.1 26 26 NE 3 6 29.71 1006 10 16 0.00 0.00
5:53 am 05:53 Clear 80 26.7 44 6.7 28 28 N 5 7 29.73 1007 10 16 0.00 0.00
6:53 am 06:53 Sunny 81 27.2 45 7.2 28 28 N 6 9 29.75 1008 10 16 0.00 0.00
7:53 am 07:53 Sunny 87 30.6 45 7.2 23 23 ENE 9 15 29.76 1008 10 16 0.00 0.00
8:53 am 08:53 Sunny 89 31.7 40 4.4 18 18 ESE 7 11 29.78 1009 10 16 0.00 0.00
9:53 am 09:53 Sunny 93 33.9 39 3.9 15 15 SE 8 13 29.78 1008 10 16 0.00 0.00
10:53 am 10:53 Sunny 96 35.6 38 3.3 13 13 SSE 7 11 29.78 1008 10 16 0.00 0.00
11:53 am 11:53 Sunny 100 37.8 41 5 13 13 S 13 20 29.76 1008 10 16 0.00 0.00
12:53 pm 12:53 Sunny 102 38.9 42 5.6 13 13 SSE 14 22 29.73 1007 10 16 0.00 0.00
1:53 pm 13:53 Sunny 106 41.1 33 0.6 8 8 SSW 10 17 29.71 1006 10 16 0.00 0.00
2:53 pm 14:53 Sunny 105 40.6 33 0.6 8 8 SW 15 24 29.70 1006 10 16 0.00 0.00
3:53 pm 15:53 Sunny 106 41.1 32 0 8 8 SW 17 28 29.67 1005 10 16 0.00 0.00
4:53 pm 16:53 Sunny 106 41.1 33 0.6 8 8 SSW 15 24 29.65 1004 10 16 0.00 0.00
5:53 pm 17:53 Sunny 105 40.6 33 0.6 8 8 SW 14 22 29.64 1004 10 16 0.00 0.00
6:53 pm 18:53 Sunny 103 39.4 33 0.6 9 9 WSW 8 13 29.64 1004 10 16 0.00 0.00
7:53 pm 19:53 Clear 100 37.8 34 1.1 10 10 SW 10 17 29.65 1004 10 16 0.00 0.00
8:53 pm 20:53 Clear 97 36.1 37 2.8 12 12 S 7 11 29.67 1005 10 16 0.00 0.00
9:53 pm 21:53 Clear 96 35.6 42 5.6 15 15 S 9 15 29.68 1005 10 16 0.00 0.00
10:53 pm 22:53 Clear 93 33.9 48 8.9 21 21 S 12 19 29.69 1005 10 16 0.00 0.00
11:53 pm 23:53 Clear 92 33.3 49 9.4 23 23 S 12 19 29.69 1005 10 16 0.00 0.00

Powered by AerisWeather